When you browse on this site, cookies collect data to enhance your experience and personalize the content and advertising you see.
Visit our Privacy Policy to learn more. By continuing to use the site, you agree to this use of cookies and data.
  • en France
  • Liste des pays
  • À 7 jours
  • Température de l'eau
  • Carte satellitaire
  • Carte météo
  • Widgets météo
  • user-avatar
    Se connecter

    Météo par heure à Fleet

    Ce jour, 18 Juin, Mardi

    Heure Température Précipitation Vent Pression Humidité
    00:00 +10°C° 0 mm 2 m/s 755 mmHg 91%
    01:00 +11°C° 0 mm 1 m/s 754 mmHg 91%
    02:00 +10°C° 0 mm 1 m/s 754 mmHg 91%
    03:00 +10°C° 0 mm 1 m/s 754 mmHg 90%
    04:00 +11°C° 0 mm 1 m/s 754 mmHg 88%
    05:00 +11°C° 0 mm 0 m/s 754 mmHg 86%
    06:00 +12°C° 0 mm 0 m/s 754 mmHg 83%
    07:00 +14°C° 0.3 mm 1 m/s 753 mmHg 84%
    08:00 +14°C° 0.3 mm 1 m/s 753 mmHg 85%
    09:00 +15°C° 0.3 mm 1 m/s 753 mmHg 86%
    10:00 +15°C° 0.3 mm 1 m/s 753 mmHg 86%
    11:00 +16°C° 0.3 mm 1 m/s 753 mmHg 87%
    12:00 +16°C° 0.3 mm 1 m/s 752 mmHg 88%
    13:00 +16°C° 0.3 mm 2 m/s 752 mmHg 89%
    14:00 +16°C° 0.3 mm 2 m/s 752 mmHg 91%
    15:00 +16°C° 0.3 mm 2 m/s 751 mmHg 93%
    16:00 +16°C° 0.1 mm 2 m/s 751 mmHg 92%
    17:00 +16°C° 0.1 mm 2 m/s 751 mmHg 92%
    18:00 +17°C° 0.1 mm 2 m/s 751 mmHg 91%
    19:00 +16°C° 0.1 mm 2 m/s 750 mmHg 93%
    20:00 +15°C° 0.1 mm 2 m/s 750 mmHg 94%
    21:00 +14°C° 0.1 mm 2 m/s 750 mmHg 96%
    22:00 +14°C° 0.1 mm 2 m/s 749 mmHg 96%
    23:00 +15°C° 0.1 mm 2 m/s 749 mmHg 96%

    Demain, 19 Juin, Mercredi

    Heure Température Précipitation Vent Pression Humidité
    00:00 +15°C° 0.1 mm 2 m/s 748 mmHg 96%
    01:00 +15°C° 0.5 mm 2 m/s 748 mmHg 97%
    02:00 +15°C° 0.5 mm 2 m/s 747 mmHg 97%
    03:00 +15°C° 0.5 mm 2 m/s 746 mmHg 98%
    04:00 +15°C° 0.8 mm 2 m/s 747 mmHg 98%
    05:00 +15°C° 0.8 mm 2 m/s 747 mmHg 98%
    06:00 +15°C° 0.8 mm 2 m/s 747 mmHg 98%
    07:00 +15°C° 1.4 mm 2 m/s 747 mmHg 97%
    08:00 +14°C° 1.4 mm 3 m/s 747 mmHg 96%
    09:00 +14°C° 1.4 mm 3 m/s 747 mmHg 96%
    10:00 +16°C° 0.1 mm 3 m/s 748 mmHg 93%
    11:00 +16°C° 0.1 mm 3 m/s 748 mmHg 90%
    12:00 +17°C° 0.1 mm 3 m/s 749 mmHg 87%
    13:00 +17°C° 0.5 mm 3 m/s 749 mmHg 87%
    14:00 +17°C° 0.5 mm 3 m/s 749 mmHg 86%
    15:00 +18°C° 0.5 mm 3 m/s 749 mmHg 86%
    16:00 +17°C° 0.2 mm 3 m/s 749 mmHg 86%
    17:00 +17°C° 0.2 mm 3 m/s 749 mmHg 87%
    18:00 +17°C° 0.2 mm 2 m/s 749 mmHg 87%
    19:00 +16°C° 0.1 mm 2 m/s 749 mmHg 89%
    20:00 +15°C° 0.1 mm 2 m/s 750 mmHg 90%
    21:00 +14°C° 0.1 mm 2 m/s 750 mmHg 92%
    22:00 +12°C° 0 mm 3 m/s 750 mmHg 92%
    23:00 +10°C° 0 mm 3 m/s 750 mmHg 91%

    Après-demain, 20 Juin, Jeudi

    Heure Température Précipitation Vent Pression Humidité
    00:00 +9°C° 0 mm 3 m/s 750 mmHg 91%
    01:00 +9°C° 0 mm 3 m/s 750 mmHg 91%
    02:00 +8°C° 0 mm 2 m/s 750 mmHg 91%
    03:00 +8°C° 0 mm 2 m/s 750 mmHg 92%
    04:00 +9°C° 0 mm 3 m/s 751 mmHg 92%
    05:00 +10°C° 0 mm 3 m/s 751 mmHg 92%
    06:00 +11°C° 0 mm 4 m/s 751 mmHg 93%
    07:00 +12°C° 0 mm 4 m/s 751 mmHg 88%
    08:00 +13°C° 0 mm 4 m/s 752 mmHg 83%
    09:00 +15°C° 0 mm 4 m/s 752 mmHg 78%
    10:00 +16°C° 0.1 mm 5 m/s 752 mmHg 75%
    11:00 +16°C° 0.1 mm 5 m/s 752 mmHg 72%
    12:00 +17°C° 0.1 mm 5 m/s 752 mmHg 69%
    13:00 +17°C° 0.1 mm 5 m/s 752 mmHg 68%
    14:00 +17°C° 0.1 mm 6 m/s 752 mmHg 67%
    15:00 +17°C° 0.1 mm 6 m/s 752 mmHg 67%
    16:00 +17°C° 0.1 mm 5 m/s 753 mmHg 71%
    17:00 +16°C° 0.1 mm 5 m/s 753 mmHg 74%
    18:00 +15°C° 0.1 mm 4 m/s 753 mmHg 78%
    19:00 +14°C° 0 mm 4 m/s 753 mmHg 83%
    20:00 +12°C° 0 mm 3 m/s 754 mmHg 87%
    21:00 +11°C° 0 mm 3 m/s 754 mmHg 91%
    22:00 +10°C° 0 mm 3 m/s 754 mmHg 92%
    23:00 +9°C° 0 mm 3 m/s 754 mmHg 92%

    21 Juin, Vendredi

    Heure Température Précipitation Vent Pression Humidité
    00:00 +8°C° 0 mm 3 m/s 755 mmHg 93%
    01:00 +8°C° 0 mm 3 m/s 755 mmHg 93%
    02:00 +8°C° 0 mm 3 m/s 755 mmHg 94%
    03:00 +7°C° 0 mm 3 m/s 755 mmHg 94%
    04:00 +8°C° 0 mm 3 m/s 755 mmHg 93%
    05:00 +9°C° 0 mm 3 m/s 755 mmHg 91%
    06:00 +10°C° 0 mm 4 m/s 755 mmHg 90%
    07:00 +12°C° 0 mm 4 m/s 756 mmHg 84%
    08:00 +13°C° 0 mm 4 m/s 756 mmHg 79%
    09:00 +15°C° 0 mm 4 m/s 756 mmHg 73%
    10:00 +17°C° 0.1 mm 4 m/s 756 mmHg 72%
    11:00 +17°C° 0.1 mm 4 m/s 756 mmHg 71%
    12:00 +18°C° 0.1 mm 4 m/s 756 mmHg 70%
    13:00 +18°C° 0.2 mm 4 m/s 756 mmHg 71%
    14:00 +18°C° 0.2 mm 4 m/s 756 mmHg 72%
    15:00 +17°C° 0.2 mm 5 m/s 756 mmHg 72%
    16:00 +17°C° 0.1 mm 4 m/s 756 mmHg 74%
    17:00 +17°C° 0.1 mm 4 m/s 757 mmHg 75%
    18:00 +17°C° 0.1 mm 3 m/s 757 mmHg 76%
    19:00 +14°C° 0 mm 3 m/s 757 mmHg 80%
    20:00 +14°C° 0 mm 2 m/s 757 mmHg 85%
    21:00 +12°C° 0 mm 2 m/s 757 mmHg 89%
    22:00 +11°C° 0 mm 1 m/s 757 mmHg 89%
    23:00 +10°C° 0 mm 1 m/s 758 mmHg 90%

    22 Juin, Samedi

    Heure Température Précipitation Vent Pression Humidité
    00:00 +10°C° 0 mm 1 m/s 758 mmHg 90%
    01:00 +9°C° 0 mm 1 m/s 758 mmHg 90%
    02:00 +9°C° 0 mm 1 m/s 758 mmHg 90%
    03:00 +9°C° 0 mm 1 m/s 758 mmHg 90%
    04:00 +10°C° 0 mm 1 m/s 758 mmHg 89%
    05:00 +11°C° 0 mm 1 m/s 758 mmHg 87%
    06:00 +11°C° 0 mm 1 m/s 758 mmHg 85%
    07:00 +12°C° 0 mm 0 m/s 758 mmHg 80%
    08:00 +14°C° 0 mm 0 m/s 758 mmHg 75%
    09:00 +16°C° 0 mm 0 m/s 758 mmHg 69%
    10:00 +17°C° 0 mm 0 m/s 758 mmHg 65%
    11:00 +18°C° 0 mm 0 m/s 758 mmHg 61%
    12:00 +21°C° 0 mm 1 m/s 758 mmHg 57%
    13:00 +21°C° 0 mm 1 m/s 758 mmHg 58%
    14:00 +21°C° 0 mm 1 m/s 757 mmHg 60%
    15:00 +20°C° 0 mm 2 m/s 757 mmHg 61%
    16:00 +19°C° 0 mm 2 m/s 757 mmHg 64%
    17:00 +19°C° 0 mm 2 m/s 757 mmHg 67%
    18:00 +20°C° 0 mm 1 m/s 757 mmHg 69%
    19:00 +18°C° 0 mm 1 m/s 757 mmHg 74%
    20:00 +15°C° 0 mm 1 m/s 757 mmHg 78%
    21:00 +12°C° 0 mm 0 m/s 757 mmHg 83%
    22:00 +13°C° 0 mm 1 m/s 757 mmHg 83%
    23:00 +12°C° 0 mm 1 m/s 757 mmHg 84%

    23 Juin, Dimanche

    Heure Température Précipitation Vent Pression Humidité
    00:00 +12°C° 0 mm 1 m/s 757 mmHg 84%
    01:00 +12°C° 0 mm 1 m/s 757 mmHg 86%
    02:00 +11°C° 0 mm 1 m/s 756 mmHg 87%
    03:00 +11°C° 0 mm 1 m/s 756 mmHg 89%
    04:00 +12°C° 0 mm 2 m/s 756 mmHg 88%
    05:00 +13°C° 0 mm 2 m/s 756 mmHg 87%
    06:00 +14°C° 0 mm 2 m/s 756 mmHg 87%
    07:00 +16°C° 0 mm 3 m/s 756 mmHg 83%
    08:00 +17°C° 0 mm 4 m/s 756 mmHg 79%
    09:00 +19°C° 0 mm 4 m/s 756 mmHg 74%
    10:00 +20°C° 0 mm 5 m/s 756 mmHg 71%
    11:00 +20°C° 0 mm 5 m/s 756 mmHg 68%
    12:00 +21°C° 0 mm 5 m/s 756 mmHg 64%
    13:00 +21°C° 0 mm 5 m/s 756 mmHg 66%
    14:00 +20°C° 0 mm 5 m/s 755 mmHg 69%
    15:00 +20°C° 0 mm 5 m/s 755 mmHg 71%
    16:00 +19°C° 0.3 mm 5 m/s 755 mmHg 77%
    17:00 +18°C° 0.3 mm 4 m/s 755 mmHg 82%
    18:00 +15°C° 0.3 mm 4 m/s 754 mmHg 87%
    19:00 +15°C° 0.8 mm 4 m/s 754 mmHg 90%
    20:00 +14°C° 0.8 mm 4 m/s 754 mmHg 92%
    21:00 +14°C° 0.8 mm 5 m/s 754 mmHg 95%
    22:00 +14°C° 1.5 mm 5 m/s 754 mmHg 95%
    23:00 +14°C° 1.5 mm 6 m/s 753 mmHg 95%
    Voir plus